FW8542 Weather Reports


time (UTC)temp
C
wind
direction
speed
KPH
gust
KPH
rain 1hr
cm
rain 24hr
cm
rain mn
cm
humidity
%
barometer
mb
20260506072703 7 349 0.0 6.4 0.00 0.00 0.00 69 1010.1
20260506071803 6 1 0.0 6.4 0.00 0.00 0.00 70 1010.1
20260506070903 6 336 0.0 6.4 0.00 0.00 0.00 70 1010.0
20260506061803 4 311 0.0 1.6 0.00 0.00 0.00 82 1009.9
20260506060924 3 314 0.0 1.6 0.00 0.00 0.00 82 1009.8
20260506050903 2 0 0.0 0.0 0.00 0.00 0.00 84 1009.7
20260506044503 1 327 0.0 3.2 0.00 0.00 0.00 84 1009.7
20260506043603 1 0 0.0 0.0 0.00 0.00 0.00 84 1009.7
20260506042707 1 0 0.0 0.0 0.00 0.00 0.00 84 1009.7
20260506041808 1 0 0.0 0.0 0.00 0.00 0.00 84 1009.7
20260506040907 2 0 0.0 0.0 0.00 0.00 0.00 84 1009.8
20260506040007 2 0 0.0 0.0 0.00 0.00 0.00 84 1009.8
20260506035428 2 321 0.0 1.6 0.00 0.00 0.00 84 1009.8
20260506034507 2 321 0.0 1.6 0.00 0.00 0.00 84 1009.8
20260506033628 2 0 0.0 0.0 0.00 0.00 0.00 84 1009.8
20260506032707 2 0 0.0 0.0 0.00 0.00 0.00 84 1009.8
20260506031807 2 305 0.0 1.6 0.00 0.00 0.00 84 1009.9
20260506030908 2 305 0.0 3.2 0.00 0.00 0.00 83 1010.0
20260506030007 2 0 0.0 0.0 0.00 0.00 0.00 83 1010.0
20260506025407 2 0 0.0 0.0 0.00 0.00 0.00 83 1009.9
20260506024507 2 304 0.0 3.2 0.00 0.00 0.00 83 1009.9
20260506023606 2 316 0.0 1.6 0.00 0.00 0.00 83 1009.9
20260506022706 2 315 0.0 4.8 0.00 0.00 0.00 83 1009.9
20260506021828 2 320 0.0 1.6 0.00 0.00 0.00 83 1009.9
20260506020906 2 0 0.0 0.0 0.00 0.00 0.00 83 1009.9
20260506020027 2 327 0.0 3.2 0.00 0.00 0.00 83 1010.1
20260506015406 2 328 0.0 3.2 0.00 0.00 0.00 83 1010.0
20260506014507 2 339 0.0 3.2 0.00 0.00 0.00 83 1010.1
20260506013606 3 0 0.0 0.0 0.00 0.00 0.00 83 1010.0
20260506012706 3 324 0.0 1.6 0.00 0.00 0.00 83 1010.2
20260506011807 3 318 0.0 1.6 0.00 0.00 0.00 83 1010.1
20260506010906 3 315 0.0 1.6 0.00 0.00 0.00 83 1010.1
20260506010027 3 315 0.0 1.6 0.00 0.00 0.00 83 1010.2
20260506005427 3 319 0.0 4.8 0.00 0.00 0.00 84 1010.1
20260506004527 3 321 0.0 3.2 0.00 0.00 0.00 84 1010.2
20260506003627 3 317 0.0 3.2 0.00 0.00 0.00 83 1010.2
20260506002706 3 308 0.0 1.6 0.00 0.00 0.00 83 1010.2
20260506001827 3 308 0.0 1.6 0.00 0.00 0.00 83 1010.3
20260506000906 3 316 0.0 3.2 0.00 0.00 0.00 83 1010.4
20260506000006 3 314 0.0 3.2 0.00 0.00 0.00 83 1010.4
20260505235406 4 313 0.0 3.2 0.00 0.00 0.00 83 1010.5
20260505234506 4 319 0.0 1.6 0.00 0.00 0.00 82 1010.5
20260505233606 4 316 0.0 3.2 0.00 0.00 0.00 82 1010.5
20260505232706 4 319 0.0 1.6 0.00 0.00 0.00 82 1010.5
20260505231806 5 0 0.0 0.0 0.00 0.00 0.00 82 1010.5
20260505230927 5 319 0.0 1.6 0.00 0.00 0.00 82 1010.7
20260505230006 5 319 0.0 1.6 0.00 0.00 0.00 82 1010.7
20260505225406 5 323 0.0 1.6 0.00 0.00 0.00 82 1010.7
20260505224506 5 0 0.0 0.0 0.00 0.00 0.00 82 1010.7
20260505223606 5 0 0.0 0.0 0.00 0.00 0.00 81 1010.8
20260505222706 5 0 0.0 0.0 0.00 0.00 0.00 80 1010.8
20260505221827 5 0 0.0 0.0 0.00 0.00 0.00 79 1010.8
20260505220906 5 0 0.0 0.0 0.00 0.00 0.00 79 1010.7
20260505220006 6 347 0.0 1.6 0.00 0.00 0.00 78 1010.7
20260505215406 6 352 1.6 8.0 0.00 0.00 0.00 78 1010.8
20260505214506 6 351 0.0 8.0 0.00 0.00 0.00 78 1010.7
20260505213606 6 332 0.0 3.2 0.00 0.00 0.00 78 1010.6
20260505212706 6 350 0.0 3.2 0.00 0.00 0.00 78 1010.7
20260505211806 7 344 1.6 8.0 0.00 0.00 0.00 78 1010.8
20260505210906 7 338 0.0 4.8 0.00 0.00 0.00 78 1010.8
20260505210027 7 342 1.6 4.8 0.00 0.00 0.00 78 1010.9
20260505205406 7 345 0.0 1.6 0.00 0.00 0.00 78 1010.8
20260505204506 7 356 1.6 6.4 0.00 0.00 0.00 78 1010.8
20260505203606 7 1 1.6 8.0 0.00 0.00 0.00 78 1010.8
20260505202706 7 25 0.0 4.8 0.00 0.00 0.00 77 1010.8
20260505201805 7 357 0.0 6.4 0.00 0.00 0.00 76 1010.6
20260505200906 7 352 1.6 9.7 0.00 0.00 0.00 76 1010.5
20260505200006 7 10 1.6 9.7 0.00 0.00 0.00 75 1010.5
20260505195405 7 25 1.6 11.3 0.00 0.00 0.00 74 1010.5
20260505194505 7 22 3.2 9.7 0.00 0.00 0.00 73 1010.5
20260505193606 7 13 0.0 9.7 0.00 0.00 0.00 73 1010.4
20260505192705 7 39 3.2 14.5 0.00 0.00 0.00 72 1010.4
20260505191826 7 39 3.2 11.3 0.00 0.00 0.00 73 1010.4
20260505190905 7 13 3.2 11.3 0.00 0.00 0.00 73 1010.4
20260505190006 7 21 3.2 11.3 0.00 0.00 0.00 73 1010.1
20260505185405 7 15 1.6 9.7 0.00 0.00 0.00 73 1010.1
20260505184505 7 12 3.2 12.9 0.00 0.00 0.00 73 1010.1
20260505183605 8 52 3.2 14.5 0.00 0.00 0.00 73 1010.0
20260505182705 8 41 1.6 9.7 0.00 0.00 0.00 73 1010.1
20260505181826 8 3 3.2 12.9 0.00 0.00 0.00 72 1010.1
20260505180905 8 4 3.2 14.5 0.00 0.00 0.00 71 1010.0
20260505180005 8 22 3.2 14.5 0.00 0.00 0.00 71 1009.9
20260505175426 8 29 3.2 11.3 0.00 0.00 0.00 72 1009.9
20260505174505 8 7 3.2 12.9 0.00 0.00 0.00 72 1009.9
20260505173626 8 358 3.2 11.3 0.00 0.00 0.00 71 1010.0
20260505172705 8 20 4.8 24.1 0.00 0.00 0.00 71 1010.0
20260505171826 8 27 3.2 24.1 0.00 0.00 0.00 71 1009.9
20260505170905 8 49 3.2 11.3 0.00 0.00 0.00 71 1010.0
20260505170005 8 23 4.8 14.5 0.00 0.00 0.00 71 1009.9
20260505165406 8 18 3.2 16.1 0.00 0.00 0.00 71 1009.9
20260505164506 8 38 3.2 9.7 0.00 0.00 0.00 71 1009.9
20260505163626 8 28 3.2 12.9 0.00 0.00 0.00 71 1009.8
20260505162705 8 51 3.2 11.3 0.00 0.00 0.00 71 1009.8
20260505161805 8 37 4.8 12.9 0.00 0.00 0.00 72 1009.8
20260505160905 8 20 3.2 14.5 0.00 0.00 0.00 72 1009.7
20260505152705 8 38 3.2 14.5 0.00 0.00 0.00 74 1009.4
20260505151805 8 59 3.2 11.3 0.00 0.00 0.00 75 1009.4
20260505150905 8 63 4.8 19.3 0.00 0.00 0.00 74 1009.3
20260505124505 10 89 3.2 9.7 0.00 0.00 0.00 68 1008.8
20260505123604 10 83 3.2 11.3 0.00 0.00 0.00 66 1008.8
20260505122704 10 34 3.2 16.1 0.00 0.00 0.00 65 1008.8
20260505121804 10 1 3.2 14.5 0.00 0.00 0.00 68 1008.8
20260505120904 10 74 4.8 17.7 0.00 0.00 0.00 70 1008.7
20260505120005 10 65 4.8 12.9 0.00 0.00 0.00 73 1008.6
20260505115404 10 42 3.2 19.3 0.00 0.00 0.00 75 1008.5
20260505114504 10 34 4.8 16.1 0.00 0.00 0.00 76 1008.5
20260505113604 10 36 4.8 19.3 0.00 0.00 0.00 76 1008.5
20260505112726 10 8 4.8 19.3 0.00 0.00 0.00 75 1008.3
20260505111804 11 22 3.2 11.3 0.00 0.00 0.00 74 1008.3
20260505110904 11 56 3.2 11.3 0.00 0.00 0.00 71 1008.2
20260505101804 12 345 1.6 8.0 0.00 0.00 0.00 69 1008.0
20260505100904 12 324 1.6 8.0 0.00 0.00 0.00 68 1008.0
20260505100025 12 17 1.6 8.0 0.00 0.00 0.00 69 1008.1
20260505095404 11 31 1.6 6.4 0.00 0.00 0.00 68 1008.1
20260505094504 11 8 1.6 8.0 0.00 0.00 0.00 68 1008.1
20260505093604 11 337 1.6 4.8 0.00 0.00 0.00 70 1008.1
20260505092705 11 329 1.6 9.7 0.00 0.00 0.00 72 1008.0
20260505091805 11 330 1.6 9.7 0.00 0.00 0.00 71 1008.0
20260505090904 11 345 1.6 11.3 0.00 0.00 0.00 71 1008.1
20260505090004 11 338 1.6 9.7 0.00 0.00 0.00 72 1008.2
20260505085404 11 335 1.6 6.4 0.00 0.00 0.00 71 1008.0
20260505084504 11 346 1.6 9.7 0.00 0.00 0.00 71 1008.0
20260505083626 11 334 0.0 6.4 0.00 0.00 0.00 71 1008.0
20260505082704 11 331 0.0 3.2 0.00 0.00 0.00 72 1008.1
20260505081804 11 327 0.0 4.8 0.00 0.00 0.00 74 1008.1
20260505080905 10 345 0.0 3.2 0.00 0.00 0.00 74 1007.9
20260505080004 10 336 0.0 1.6 0.00 0.00 0.00 75 1008.0
20260505075404 10 302 0.0 3.2 0.00 0.00 0.00 75 1008.0
20260505074504 10 322 1.6 4.8 0.00 0.00 0.00 75 1007.9
20260505073604 10 326 1.6 4.8 0.00 0.00 0.00 74 1008.0